Regional Weather Roundup
Issued by NWS

Home | Current Version | Previous Version | Graphics & Text | Print | Product List | Glossary On
Versions: 1 2 3 4 5 6 7 8 9 10 11 12 13 14 15 16 17 18 19 20 21 22 23 24 25 26 27 28 29 30 31 32 33 34 35 36 37 38 39 40 41 42 43 44 45 46 47 48 49 50
000
ASUS43 KMKX 020120
RWRWI

WISCONSIN REGIONAL WEATHER ROUNDUP
NATIONAL WEATHER SERVICE MILWAUKEE/SULLIVAN WI
800 PM CDT WED APR 01 2015

NOTE: "FAIR" INDICATES FEW OR NO CLOUDS BELOW 12,000 FEET WITH NO
SIGNIFICANT WEATHER AND/OR OBSTRUCTIONS TO VISIBILITY.

WIZ001-002-006>008-014>016-023>028-020200-
NORTHWEST WISCONSIN

CITY           SKY/WX    TMP DP  RH WIND       PRES   REMARKS
SUPERIOR ARPT  MOCLDY    34  32  94 NE7       29.48F WCI  28
ASHLAND        MOCLDY    67  39  35 SW21G31   29.49R
HAYWARD        LGT RAIN  56  41  57 CALM      29.50F
SIREN          LGT RAIN  58  51  78 S9        29.53R
CUMBERLAND     MOCLDY    68  34  28 S15G24    29.49R
RICE LAKE      MOCLDY    71  31  22 S17G26    29.50F
CHETEK         MOCLDY    70  35  27 S9G17     29.51S
LADYSMITH      CLOUDY    69  34  27 S9        29.55F
EAU CLAIRE     PTCLDY    72  31  22 S16G28    29.52F
MENOMONIE      PTCLDY    72  32  22 S15G21    29.51S
NEW RICHMOND   MOCLDY    71  36  27 S21       29.47S
OSCEOLA        LGT RAIN  68  50  53 CALM      29.53R
$$

WIZ003>005-009-010-017-018-020200-
NORTH CENTRAL WISCONSIN

CITY           SKY/WX    TMP DP  RH WIND       PRES   REMARKS
MANITOWISH WTR MOCLDY    53  37  53 SE8       29.58R
ARBOR VITAE    CLOUDY    55  37  52 SE9       29.58F
WOODRUFF       CLOUDY    55  37  52 SE9       29.58F
RHINELANDER    MOCLDY    55  36  48 SE10      29.62F
EAGLE RIVER    CLOUDY    51  33  50 S9        29.61S
LAND O LAKES   CLOUDY    51  35  53 S9G18     29.61S
PHILLIPS       CLOUDY    62  39  42 S8        29.54F
TOMAHAWK       MOCLDY    54  37  52 CALM      29.60F
MEDFORD        MOCLDY    62  38  42 S14       29.58F
MERRILL        CLOUDY    57  40  52 E7        29.61S
$$

WIZ029-030-035-036-043>047-020200-
CENTRAL WISCONSIN

CITY           SKY/WX    TMP DP  RH WIND       PRES   REMARKS
WAUSAU         CLOUDY    67  34  29 S13       29.60F
MOSINEE        CLEAR     64  34  32 S15G21    29.63F
MARSHFIELD     MOCLDY    69  31  24 S18G28    29.61F
STEVENS POINT  MOCLDY    66  35  31 S13       29.64F
WAUPACA        MOCLDY    68  34  29 S12       29.67F
WAUTOMA        PTCLDY    70  35  27 S17G24    29.67F
WISC RAPIDS    MOCLDY    70  30  22 S10       29.64F
CAMP DOUGLAS   MOCLDY    72  34  25 S16G25    29.63F
$$

WIZ011>013-019>022-031-037>040-048>050-020200-
NORTHEAST WISCONSIN

CITY           SKY/WX    TMP DP  RH WIND       PRES   REMARKS
ANTIGO         CLOUDY    50  39  67 SE13      29.65F
SHAWANO        CLOUDY    55  40  56 S7        29.67F
OCONTO         CLOUDY    48  37  65 S6        29.70F
STURGEON BAY   CLOUDY    46  36  66 S22G29    29.75F
GREEN BAY      CLOUDY    55  40  56 S14       29.70F
MANITOWOC      MOCLDY    47  37  68 S17       29.76F
APPLETON       MOCLDY    55  37  50 S15       29.71F
CLINTONVILLE   MOCLDY    54  39  58 S10       29.67F
OSHKOSH        PTCLDY    56  41  57 S10       29.71F
$$

WIZ032>034-041-042-053>061-020200-
SOUTHWEST WISCONSIN

CITY           SKY/WX    TMP DP  RH WIND       PRES   REMARKS
LA CROSSE      PTCLDY    73  34  23 S20G31    29.58F
SPARTA         PTCLDY    71  30  22 S17G24    29.63F
VIROQUA        PTCLDY    67  33  27 S20G28    29.66F
BOSCOBEL         N/A     72  34  24 S15G24    29.69S
PRAIRIE DU CHI PTCLDY    73  28  19 S20G28    29.68S
PLATTEVILLE    CLEAR     65  36  34 SE17G24   29.74S
$$

WIZ056-057-062-063-064-067-068-020200-
SOUTH CENTRAL WISCONSIN

CITY           SKY/WX    TMP DP  RH WIND       PRES   REMARKS
REEDSBURG      MOCLDY    68  36  30 S13       29.69S
BARABOO/DELLS  MOCLDY    69  31  24 S16       29.69F
LONE ROCK      PTCLDY    70  33  25 S9G23     29.70F
MINERAL POINT  PTCLDY    66  32  28 S14       29.74S
MADISON        MOCLDY    68  35  29 S13       29.74F
MIDDLETON      PTCLDY    69  30  23 S12       29.74S
WATERTOWN      PTCLDY    65  39  37 S12       29.77S
MONROE         PTCLDY    64  36  34 S21G28    29.78R
JANESVILLE     CLEAR     70  32  24 S23G29    29.79S
$$

WIZ051-052-058>065-066-070>072-020200-
SOUTHEAST WISCONSIN

CITY           SKY/WX    TMP DP  RH WIND       PRES   REMARKS
MILWAUKEE      MOCLDY    58  36  43 S10       29.82F
WAUKESHA       MOCLDY    66  36  32 S12G18    29.81S
MILWAUKEE/TIMM CLEAR     61  34  36 S10       29.81S
RACINE         PTCLDY    51  36  56 S9        29.84F
BURLINGTON     PTCLDY    64  36  35 S14       29.81S
KENOSHA        PTCLDY    66  38  35 S13       29.83S
FOND DU LAC    PTCLDY    58  39  49 S12       29.73F
SHEBOYGAN      MOCLDY    50  36  58 S15       29.77F
WEST BEND      PTCLDY    57  34  41 S8        29.78S
JUNEAU         PTCLDY    64  37  36 S15       29.76F
$$

LSZ147-162-020200-
LAKE SUPERIOR

STATION/POSITION TIME  TEMP    WIND        PRES    WAVE
                       AIR SEA DIR/SP/G            HT/PER
                 (UTC) (F)     (DEG/KT/KT) (MB)    (FT/S)
DEVILS ISLAND    0100   38      70/  8/ 11  997.8F
PORT WING        0000   35      40/ 12/ 15  998.6F
SAXON HARBOR     0000   66     190/ 12/ 19  997.3F
$$

LMZ867-665-643>646-020200-
LAKE MICHIGAN

STATION/POSITION TIME  TEMP    WIND        PRES    WAVE
                       AIR SEA DIR/SP/G            HT/PER
                 (UTC) (F)     (DEG/KT/KT) (MB)    (FT/S)
NORTHPORT PIER   0100   38     140/ 10/ 16 1008.1F
KEWAUNEE LAKESHO 0100   43     190/ 18/ 21 1006.7F
SHEBOYGAN LAKESH 0100   44     180/ 24/ 26 1008.7F
PORT WASHINGTON  0040   44     200/ 10/ 15 1009.8F
MILWAUKEE LAKESH 0100   44     160/ 11/ 12   N/A
KENOSHA   LAKESH 0100   45     170/ 15/ 17 1010.5R
$$

TC  - TEMPERATURE IN CELSIUS
VSB - VISIBILITY IN STATUTE MILES
WCI - WIND CHILL INDEX
HX  - HEAT INDEX




USA.gov is the U.S. government's official web portal to all federal, state and local government web resources and services.